[[{"header":{"parameterUnit":"m.s-1","parameterCategory":1,"la1":30.2991,"la2":30.254,"lo1":-89.0895,"lo2":-89.0444,"dy":0.0017,"dx":0.0017,"nx":28,"ny":28,"refTime":"2025-11-15T09:00:00:Z","depth":0,"parameterNumber":2,"parameterNumberName":"U-component_of_WINDS"},"data":[0,0,0,0,0,0,0,0,0,0,0,0,0,0,0,0,0,0,0,0,0,0,0,0,0,0,0,0,0,0,0,0,0,0,0,0,0,0,0,0,0,0,0,0,0,0,0,0,0,0,0,0,0,0,0,0,0,0,-0.8827,-0.8828,0,-0.8857,-0.8857,-0.8857,-0.8845,-0.8844,-0.8844,-0.8843,-0.8872,-0.8874,-0.8875,0,0,0,0,0,0,0,0,0,0,0,0,0,-0.8761,-0.8762,-0.8827,-0.8828,-0.8828,-0.8856,-0.8857,-0.8857,-0.8845,-0.8844,-0.8843,-0.8843,-0.8872,-0.8874,-0.8875,0,0,0,0,0,0,0,0,0,0,0,0,0,-0.879,-0.8763,-0.8827,-0.8826,-0.8826,-0.8856,-0.8857,-0.8857,-0.8845,-0.8844,-0.8843,-0.8842,-0.8871,-0.8874,-0.8876,-0.891,0,0,-0.8882,-0.8883,0,0,0,0,0,0,0,0,-0.8788,-0.8793,-0.8825,-0.8826,-0.8826,-0.8846,-0.8844,-0.8875,-0.8846,-0.8838,-0.8843,-0.8842,-0.8864,-0.8867,-0.8875,-0.8911,-0.8913,-0.8882,-0.8884,-0.8885,-0.8885,0,0,0,0,0,0,0,-0.8786,-0.8791,-0.8839,-0.8826,-0.8826,-0.8823,-0.8826,-0.885,-0.8857,-0.8838,-0.8838,-0.8841,-0.8864,-0.8873,-0.8875,-0.8913,-0.8882,-0.8884,-0.8886,-0.8886,-0.8979,-0.898,0,0,0,0,0,0,-0.8784,-0.879,-0.8838,-0.884,-0.8804,-0.8825,-0.8828,-0.8841,-0.8856,-0.8858,-0.8842,-0.8841,-0.887,-0.8873,-0.8876,-0.8917,-0.8885,-0.8887,-0.8888,-0.8978,-0.8979,-0.898,0,0,0,0,0,0,-0.8783,-0.8789,-0.8837,-0.8815,-0.882,-0.8827,-0.8841,-0.8842,-0.885,-0.8859,-0.886,-0.8849,-0.8869,-0.8873,-0.8902,-0.8918,-0.8888,-0.889,-0.8976,-0.8978,-0.898,-0.9,0,0,0,0,0,0,-0.8781,-0.8788,-0.8802,-0.8815,-0.8822,-0.8862,-0.8842,-0.8843,-0.8854,-0.8852,-0.8866,-0.8868,-0.8869,-0.8898,-0.8904,-0.8921,-0.8891,-0.8975,-0.8977,-0.8979,-0.8998,-0.9002,-0.9006,0,0,0,0,0,-0.8779,-0.8806,-0.8802,-0.8808,-0.8838,-0.8863,-0.8866,-0.8867,-0.8855,-0.8869,-0.8874,-0.8867,-0.8916,-0.8901,-0.8907,-0.8925,-0.8974,-0.8976,-0.8979,-0.8996,-0.9001,-0.9006,0,0,0,0,0,0,-0.8794,-0.8808,-0.8804,-0.8836,-0.8848,-0.8861,-0.8877,-0.8873,-0.8888,-0.8886,-0.8886,-0.8889,-0.8918,-0.8924,-0.8908,-0.8959,-0.8943,-0.8947,-0.8954,-0.8959,-0.8963,-0.8961,-0.8893,0,0,0,0,0,-0.8802,-0.8821,-0.8831,-0.8859,-0.8865,-0.887,-0.8881,-0.888,-0.8893,-0.8898,-0.8906,-0.8918,-0.8936,-0.8948,-0.8965,-0.8999,-0.9001,-0.9014,-0.9018,-0.9021,-0.9024,-0.9042,-0.9048,-0.8989,-0.8989,-0.8989,0,0,-0.8817,-0.8826,-0.8838,-0.8862,-0.8871,-0.8891,-0.8875,-0.8896,-0.891,-0.8901,-0.8928,-0.8934,-0.8948,-0.8979,-0.8993,-0.8985,-0.9041,-0.9024,-0.9027,-0.9028,-0.9046,-0.9051,-0.9056,-0.899,-0.899,-0.899,0,0,-0.8854,-0.8863,-0.8887,-0.8897,-0.8911,-0.8915,-0.892,-0.8933,-0.8937,-0.8964,-0.8958,-0.8975,-0.9006,-0.9016,-0.9025,-0.9067,-0.9061,-0.9072,-0.9093,-0.9111,-0.9115,-0.9119,-0.9134,-0.9139,-0.9075,-0.9075,-0.9075,0,-0.8871,-0.89,-0.89,-0.8922,-0.8932,-0.8925,-0.8949,-0.8959,-0.8978,-0.8985,-0.8976,-0.9015,-0.9024,-0.9057,-0.9067,-0.9075,-0.9081,-0.907,-0.9115,-0.9119,-0.9123,-0.9136,-0.9142,-0.9077,-0.9077,-0.9076,-0.9076,0,-0.892,-0.894,-0.8958,-0.8977,-0.8989,-0.9012,-0.9015,-0.9028,-0.9026,-0.9031,-0.9058,-0.9069,-0.9088,-0.9095,-0.9094,-0.9128,-0.9123,-0.9114,-0.9098,-0.913,-0.9142,-0.9148,-0.9079,-0.9078,-0.9078,-0.9077,0,0,-0.8968,-0.8986,-0.8993,-0.9001,-0.9017,-0.9032,-0.9055,-0.9073,-0.9084,-0.9098,-0.9117,-0.9143,-0.9135,-0.9146,-0.9145,-0.9161,-0.9192,-0.915,-0.915,-0.9157,-0.9231,-0.9237,-0.9243,-0.9189,-0.919,-0.919,-0.9229,0,-0.9006,-0.9045,-0.9046,-0.9082,-0.9101,-0.9094,-0.9114,-0.9126,-0.913,-0.9146,-0.9151,-0.917,-0.9158,-0.9164,-0.918,-0.9185,-0.9207,-0.9182,-0.9206,-0.9206,-0.9202,-0.925,-0.9256,-0.9293,-0.9234,-0.9235,-0.9236,0,-0.9056,-0.9071,-0.9109,-0.9122,-0.913,-0.9147,-0.9164,-0.918,-0.9193,-0.9195,-0.9207,-0.9204,-0.9227,-0.921,-0.9241,-0.9225,-0.9234,-0.9239,-0.924,-0.9242,-0.9223,-0.9253,-0.9304,-0.931,-0.9244,-0.9243,-0.9243,0,-0.9086,-0.9117,-0.9143,-0.9151,-0.9166,-0.9179,-0.9186,-0.9198,-0.9209,-0.9224,-0.9231,-0.9248,-0.9258,-0.9271,-0.9273,-0.9261,-0.9304,-0.9288,-0.9307,-0.9307,-0.9316,-0.9315,-0.9369,-0.9323,-0.9323,-0.9322,-0.9322,0,-0.9129,-0.9152,-0.9157,-0.9173,-0.92,-0.92,-0.9226,-0.9232,-0.9243,-0.926,-0.9256,-0.9272,-0.9273,-0.929,-0.9292,-0.9317,-0.9322,-0.9324,-0.9324,-0.9324,-0.9324,-0.933,-0.9327,-0.9324,-0.9324,-0.9323,-0.9323,0,-0.9167,-0.9171,-0.92,-0.9213,-0.9216,-0.9235,-0.9246,-0.9261,-0.9265,-0.9287,-0.9292,-0.9299,-0.9318,-0.9322,-0.9344,-0.9345,-0.9376,-0.9373,-0.9371,-0.9371,-0.9389,-0.9387,-0.9449,-0.9457,-0.9406,-0.9406,-0.9407,0,-0.9194,-0.9212,-0.9226,-0.9238,-0.9245,-0.9264,-0.9275,-0.9277,-0.9289,-0.9305,-0.9318,-0.9337,-0.9353,-0.9384,-0.939,-0.9408,-0.9406,-0.9426,-0.9408,-0.9408,-0.9405,-0.9404,-0.9406,-0.9429,-0.943,-0.9431,-0.9431,0,-0.9241,-0.9242,-0.9258,-0.9276,-0.929,-0.9304,-0.9317,-0.9326,-0.9329,-0.9343,-0.9363,-0.9375,-0.9398,-0.9417,-0.9434,-0.9441,-0.9437,-0.9437,-0.9442,-0.9442,-0.944,-0.9441,-0.938,-0.9435,-0.9435,-0.9434,-0.9434,-0.9434,-0.9274,-0.9289,-0.9302,-0.9321,-0.9331,-0.9343,-0.9358,-0.9364,-0.9381,-0.94,-0.94,-0.9422,-0.9434,-0.9457,-0.9465,-0.9482,-0.9475,-0.9483,-0.9485,-0.9487,-0.9488,-0.9437,-0.9485,-0.9485,-0.9485,-0.9485,-0.9485,0,-0.932,-0.9328,-0.9345,-0.9363,-0.9378,-0.9373,-0.9387,-0.9399,-0.9419,-0.9431,-0.9446,-0.9469,-0.9487,-0.9495,-0.9513,-0.9525,-0.9523,-0.9529,-0.9528,-0.953,-0.9493,-0.9487,-0.953,-0.953,-0.953,-0.953,-0.953,-0.953,-0.9346,-0.9372,-0.9374,-0.9405,-0.9413,-0.9434,-0.9443,-0.9454,-0.9464,-0.9489,-0.9504,-0.951,-0.952,-0.9539,-0.9555,-0.9557,-0.9564,-0.9571,-0.9572,-0.9537,-0.9533,-0.9528,-0.9522,-0.9572,-0.9572,-0.9607,-0.9607,-0.9607]},{"header":{"parameterUnit":"m.s-1","parameterCategory":1,"la1":30.2991,"la2":30.254,"lo1":-89.0895,"lo2":-89.0444,"dy":0.0017,"dx":0.0017,"nx":28,"ny":28,"refTime":"2025-11-15T09:00:00:Z","depth":0,"parameterNumber":3,"parameterNumberName":"V-component_of_WINDS"},"data":[0,0,0,0,0,0,0,0,0,0,0,0,0,0,0,0,0,0,0,0,0,0,0,0,0,0,0,0,0,0,0,0,0,0,0,0,0,0,0,0,0,0,0,0,0,0,0,0,0,0,0,0,0,0,0,0,0,0,-1.6573,-1.6574,0,-1.6619,-1.6619,-1.662,-1.6625,-1.6625,-1.6625,-1.6624,-1.6668,-1.6669,-1.6671,0,0,0,0,0,0,0,0,0,0,0,0,0,-1.6489,-1.6491,-1.6573,-1.6574,-1.6575,-1.6619,-1.6619,-1.662,-1.6626,-1.6625,-1.6624,-1.6624,-1.6667,-1.6669,-1.6671,0,0,0,0,0,0,0,0,0,0,0,0,0,-1.6529,-1.6491,-1.6573,-1.6583,-1.6584,-1.6619,-1.6619,-1.662,-1.6626,-1.6625,-1.6624,-1.6624,-1.6667,-1.6669,-1.6671,-1.6699,0,0,-1.6678,-1.6679,0,0,0,0,0,0,0,0,-1.6527,-1.6532,-1.6581,-1.6582,-1.6584,-1.6616,-1.6606,-1.6646,-1.6626,-1.661,-1.6624,-1.6623,-1.6651,-1.6654,-1.6664,-1.6701,-1.6703,-1.6679,-1.668,-1.6681,-1.6682,0,0,0,0,0,0,0,-1.6524,-1.653,-1.6591,-1.6581,-1.6583,-1.6584,-1.6589,-1.6613,-1.6633,-1.6611,-1.6612,-1.6617,-1.6652,-1.6662,-1.6665,-1.6703,-1.6679,-1.6681,-1.6682,-1.6683,-1.6764,-1.6765,0,0,0,0,0,0,-1.652,-1.6528,-1.659,-1.6593,-1.6553,-1.6586,-1.6591,-1.6606,-1.6633,-1.6637,-1.6618,-1.6617,-1.6658,-1.6663,-1.6667,-1.6701,-1.6681,-1.6683,-1.6685,-1.6763,-1.6764,-1.6765,0,0,0,0,0,0,-1.6518,-1.6525,-1.6588,-1.6561,-1.6569,-1.6588,-1.6604,-1.6607,-1.6618,-1.6638,-1.6641,-1.6625,-1.6658,-1.6664,-1.6691,-1.6702,-1.6684,-1.6686,-1.6762,-1.6764,-1.6765,-1.6768,0,0,0,0,0,0,-1.6516,-1.6525,-1.6536,-1.6561,-1.657,-1.6612,-1.6605,-1.6609,-1.6622,-1.6622,-1.6646,-1.6649,-1.6658,-1.6687,-1.6693,-1.6705,-1.6688,-1.6762,-1.6763,-1.6764,-1.6767,-1.6769,-1.6771,0,0,0,0,0,-1.6513,-1.6535,-1.6537,-1.6544,-1.6585,-1.6613,-1.6618,-1.6629,-1.6623,-1.6634,-1.6647,-1.6648,-1.67,-1.669,-1.6697,-1.6709,-1.6761,-1.6763,-1.6764,-1.6766,-1.6769,-1.6771,0,0,0,0,0,0,-1.651,-1.6538,-1.654,-1.6571,-1.659,-1.6614,-1.6628,-1.6631,-1.6651,-1.6649,-1.6661,-1.6666,-1.6693,-1.6704,-1.6692,-1.6737,-1.673,-1.6733,-1.6729,-1.6732,-1.6734,-1.673,-1.669,0,0,0,0,0,-1.6513,-1.6534,-1.6557,-1.6582,-1.6591,-1.6608,-1.6621,-1.6627,-1.6646,-1.6654,-1.6669,-1.6687,-1.6707,-1.672,-1.674,-1.6769,-1.6774,-1.6781,-1.6783,-1.6784,-1.6787,-1.6802,-1.6806,-1.6771,-1.6771,-1.6771,0,0,-1.6519,-1.6537,-1.6549,-1.6582,-1.6597,-1.6618,-1.6614,-1.6637,-1.6652,-1.6657,-1.6684,-1.6696,-1.6716,-1.6744,-1.6757,-1.6754,-1.6798,-1.6787,-1.6788,-1.6789,-1.6805,-1.6808,-1.6811,-1.6772,-1.6772,-1.6771,0,0,-1.6541,-1.6557,-1.6579,-1.6595,-1.6618,-1.6629,-1.6634,-1.6658,-1.6666,-1.6694,-1.6698,-1.6716,-1.6751,-1.6765,-1.6777,-1.6805,-1.6806,-1.6811,-1.6821,-1.6836,-1.6839,-1.6841,-1.6851,-1.6854,-1.6813,-1.6813,-1.6813,0,-1.6545,-1.6578,-1.659,-1.6613,-1.6626,-1.6633,-1.6655,-1.6669,-1.6697,-1.6706,-1.6703,-1.6747,-1.6761,-1.6793,-1.6799,-1.6809,-1.6815,-1.6808,-1.6838,-1.684,-1.6843,-1.6852,-1.6856,-1.6814,-1.6814,-1.6813,-1.6813,0,-1.6582,-1.6604,-1.662,-1.6648,-1.6663,-1.6685,-1.67,-1.6715,-1.672,-1.6731,-1.6759,-1.6776,-1.68,-1.6808,-1.6813,-1.684,-1.6837,-1.6836,-1.6828,-1.6846,-1.6855,-1.6859,-1.6814,-1.6814,-1.6814,-1.6814,0,0,-1.6602,-1.6638,-1.6643,-1.6656,-1.6682,-1.6699,-1.6721,-1.6745,-1.6757,-1.6776,-1.6795,-1.6824,-1.6823,-1.6836,-1.6843,-1.6857,-1.6877,-1.6853,-1.6854,-1.6857,-1.6908,-1.6908,-1.6912,-1.6879,-1.6879,-1.688,-1.6906,0,-1.6627,-1.6668,-1.668,-1.6714,-1.6735,-1.6741,-1.6761,-1.6778,-1.6789,-1.6808,-1.682,-1.684,-1.6837,-1.6845,-1.6859,-1.6872,-1.6887,-1.687,-1.6895,-1.6896,-1.6889,-1.6917,-1.6918,-1.6941,-1.6909,-1.691,-1.691,0,-1.6661,-1.6682,-1.6718,-1.6742,-1.6751,-1.6769,-1.6791,-1.6809,-1.6829,-1.6836,-1.6852,-1.6858,-1.688,-1.6872,-1.6903,-1.6891,-1.6902,-1.691,-1.6911,-1.6913,-1.6904,-1.6919,-1.6949,-1.6952,-1.6916,-1.6915,-1.6915,0,-1.6672,-1.6709,-1.6736,-1.6747,-1.6775,-1.6787,-1.6799,-1.6819,-1.6832,-1.6852,-1.6861,-1.6882,-1.6894,-1.691,-1.6922,-1.6915,-1.6951,-1.6944,-1.6957,-1.6957,-1.6964,-1.6963,-1.6995,-1.6972,-1.6972,-1.6972,-1.6972,0,-1.6698,-1.672,-1.6741,-1.6757,-1.6782,-1.6795,-1.6819,-1.6831,-1.6848,-1.6867,-1.6873,-1.689,-1.6904,-1.6922,-1.6931,-1.6955,-1.6961,-1.6966,-1.6968,-1.6965,-1.6965,-1.6972,-1.6971,-1.6973,-1.6972,-1.6972,-1.6972,0,-1.6714,-1.6729,-1.6759,-1.6784,-1.679,-1.6807,-1.6828,-1.6844,-1.6855,-1.6878,-1.6884,-1.6902,-1.6924,-1.6937,-1.6964,-1.697,-1.6997,-1.6998,-1.699,-1.6991,-1.7003,-1.7001,-1.704,-1.7046,-1.7019,-1.7019,-1.702,0,-1.6729,-1.6747,-1.6774,-1.6787,-1.6799,-1.682,-1.6835,-1.6848,-1.6862,-1.6887,-1.6899,-1.6922,-1.6941,-1.6975,-1.699,-1.7011,-1.7013,-1.7025,-1.7016,-1.7012,-1.7012,-1.7011,-1.7012,-1.7026,-1.7026,-1.7027,-1.7027,0,-1.6755,-1.6762,-1.6782,-1.6806,-1.6823,-1.6842,-1.686,-1.687,-1.6887,-1.6902,-1.6926,-1.694,-1.6969,-1.6991,-1.7013,-1.7025,-1.7028,-1.703,-1.7034,-1.7031,-1.7025,-1.7028,-1.6994,-1.7028,-1.7028,-1.7028,-1.7028,-1.7028,-1.6771,-1.6786,-1.6808,-1.6831,-1.6846,-1.6864,-1.688,-1.6893,-1.6913,-1.6938,-1.6945,-1.6969,-1.6988,-1.7019,-1.7031,-1.7049,-1.7047,-1.7053,-1.7054,-1.7055,-1.7056,-1.7023,-1.7053,-1.7053,-1.7053,-1.7053,-1.7053,0,-1.6796,-1.6811,-1.6831,-1.6858,-1.6876,-1.6879,-1.6899,-1.6914,-1.6935,-1.6953,-1.6972,-1.6998,-1.702,-1.7037,-1.7059,-1.707,-1.7072,-1.7075,-1.7074,-1.7077,-1.7056,-1.7051,-1.7073,-1.7073,-1.7073,-1.7073,-1.7073,-1.7073,-1.6811,-1.6838,-1.6847,-1.6881,-1.6895,-1.692,-1.6931,-1.6947,-1.6962,-1.6991,-1.7009,-1.7021,-1.7038,-1.7061,-1.7081,-1.7085,-1.7093,-1.7095,-1.71,-1.708,-1.7078,-1.7076,-1.7071,-1.7097,-1.7097,-1.7119,-1.7119,-1.7119]}]]